Time,TemperatureF,DewpointF,PressureIn,WindDirection,WindDirectionDegrees,WindSpeedMPH,WindSpeedGustMPH,Humidity,HourlyPrecipIn,Conditions,Clouds,dailyrainin,SoftwareType,DateUTC
2013-05-28 00:02:00,48.0,20.0,-100.00,SW,224,7.0,12.0,33,0.00,,,-99.99,,2013-05-28 06:02:00,
2013-05-28 00:11:00,47.0,20.0,-100.00,SSW,196,4.0,11.0,34,0.00,,,-99.99,,2013-05-28 06:11:00,
2013-05-28 00:21:00,47.0,20.0,-100.00,SE,141,4.0,10.0,34,0.00,,,-99.99,,2013-05-28 06:21:00,
2013-05-28 00:32:00,46.0,20.0,-100.00,SE,124,2.0,7.0,35,0.00,,,-99.99,,2013-05-28 06:32:00,
2013-05-28 00:41:00,46.0,20.0,-100.00,SE,137,2.0,6.0,35,0.00,,,-99.99,,2013-05-28 06:41:00,
2013-05-28 00:51:00,46.0,20.0,-100.00,SE,134,2.0,4.0,34,0.00,,,-99.99,,2013-05-28 06:51:00,
2013-05-28 01:01:00,46.0,19.0,-100.00,ESE,116,2.0,7.0,34,0.00,,,-99.99,,2013-05-28 07:01:00,
2013-05-28 01:11:00,46.0,18.0,-100.00,SE,131,3.0,9.0,32,0.00,,,-99.99,,2013-05-28 07:11:00,
2013-05-28 01:21:00,47.0,18.0,-100.00,SE,134,4.0,7.0,32,0.00,,,-99.99,,2013-05-28 07:21:00,
2013-05-28 01:32:00,47.0,18.0,-100.00,ENE,71,4.0,9.0,31,0.00,,,-99.99,,2013-05-28 07:32:00,
2013-05-28 01:42:00,47.0,18.0,-100.00,SE,140,4.0,10.0,30,0.00,,,-99.99,,2013-05-28 07:42:00,
2013-05-28 01:52:00,47.0,18.0,-100.00,SW,216,7.0,13.0,30,0.00,,,-99.99,,2013-05-28 07:52:00,
2013-05-28 02:02:00,47.0,18.0,-100.00,SW,220,8.0,12.0,31,0.00,,,-99.99,,2013-05-28 08:02:00,
2013-05-28 02:11:00,47.0,18.0,-100.00,SW,224,8.0,14.0,31,0.00,,,-99.99,,2013-05-28 08:11:00,
2013-05-28 02:21:00,46.0,18.0,-100.00,WSW,243,6.0,11.0,32,0.00,,,-99.99,,2013-05-28 08:21:00,
2013-05-28 02:32:00,45.0,17.0,-100.00,SW,230,4.0,9.0,32,0.00,,,-99.99,,2013-05-28 08:32:00,
2013-05-28 02:42:00,46.0,17.0,-100.00,SW,229,7.0,12.0,31,0.00,,,-99.99,,2013-05-28 08:42:00,
2013-05-28 02:51:00,46.0,17.0,-100.00,WSW,239,6.0,11.0,30,0.00,,,-99.99,,2013-05-28 08:51:00,
2013-05-28 03:01:00,47.0,13.0,-100.00,WSW,243,6.0,11.0,26,0.00,,,-99.99,,2013-05-28 09:01:00,
2013-05-28 03:11:00,47.0,12.0,-100.00,WSW,257,4.0,8.0,24,0.00,,,-99.99,,2013-05-28 09:11:00,
2013-05-28 03:21:00,47.0,15.0,-100.00,South,176,3.0,8.0,27,0.00,,,-99.99,,2013-05-28 09:21:00,
2013-05-28 03:33:00,46.0,15.0,-100.00,East,92,3.0,6.0,29,0.00,,,-99.99,,2013-05-28 09:33:00,
2013-05-28 03:42:00,46.0,15.0,-100.00,ESE,106,2.0,6.0,28,0.00,,,-99.99,,2013-05-28 09:42:00,
2013-05-28 03:53:00,47.0,13.0,-100.00,SSE,164,1.0,4.0,26,0.00,,,-99.99,,2013-05-28 09:53:00,
2013-05-28 04:03:00,45.0,17.0,-100.00,East,97,6.0,9.0,32,0.00,,,-99.99,,2013-05-28 10:03:00,
2013-05-28 04:12:00,43.0,18.0,-100.00,East,95,5.0,8.0,36,0.00,,,-99.99,,2013-05-28 10:12:00,
2013-05-28 04:22:00,44.0,16.0,-100.00,ESE,119,7.0,12.0,33,0.00,,,-99.99,,2013-05-28 10:22:00,
2013-05-28 04:32:00,43.0,20.0,-100.00,SE,138,11.0,13.0,39,0.00,,,-99.99,,2013-05-28 10:32:00,
2013-05-28 04:42:00,42.0,20.0,-100.00,SE,128,11.0,13.0,40,0.00,,,-99.99,,2013-05-28 10:42:00,
2013-05-28 04:53:00,44.0,20.0,-100.00,SE,133,11.0,13.0,37,0.00,,,-99.99,,2013-05-28 10:53:00,
2013-05-28 05:02:00,45.0,19.0,-100.00,SE,138,11.0,13.0,36,0.00,,,-99.99,,2013-05-28 11:02:00,
2013-05-28 05:11:00,44.0,18.0,-100.00,SE,141,12.0,13.0,35,0.00,,,-99.99,,2013-05-28 11:11:00,
2013-05-28 05:22:00,42.0,18.0,-100.00,SE,127,9.0,11.0,38,0.00,,,-99.99,,2013-05-28 11:22:00,
2013-05-28 05:32:00,43.0,16.0,-100.00,SE,136,7.0,11.0,33,0.00,,,-99.99,,2013-05-28 11:32:00,
2013-05-28 05:42:00,46.0,13.0,-100.00,SSE,150,7.0,11.0,26,0.00,,,-99.99,,2013-05-28 11:42:00,
2013-05-28 05:52:00,44.0,18.0,-100.00,West,265,6.0,10.0,35,0.00,,,-99.99,,2013-05-28 11:52:00,
2013-05-28 06:01:00,40.0,18.0,-100.00,East,79,4.0,9.0,40,0.00,,,-99.99,,2013-05-28 12:01:00,
2013-05-28 06:11:00,44.0,16.0,-100.00,SE,141,9.0,12.0,31,0.00,,,-99.99,,2013-05-28 12:11:00,
2013-05-28 06:21:00,46.0,17.0,-100.00,SE,134,7.0,9.0,31,0.00,,,-99.99,,2013-05-28 12:21:00,
2013-05-28 06:32:00,46.0,16.0,-100.00,SE,128,7.0,9.0,30,0.00,,,-99.99,,2013-05-28 12:32:00,
2013-05-28 06:42:00,47.0,16.0,-100.00,SE,138,9.0,10.0,29,0.00,,,-99.99,,2013-05-28 12:42:00,
2013-05-28 06:52:00,47.0,17.0,-100.00,SE,134,7.0,9.0,29,0.00,,,-99.99,,2013-05-28 12:52:00,
2013-05-28 07:01:00,51.0,18.0,-100.00,SE,138,8.0,9.0,27,0.00,,,-99.99,,2013-05-28 13:01:00,
2013-05-28 07:11:00,52.0,19.0,-100.00,SE,128,6.0,9.0,27,0.00,,,-99.99,,2013-05-28 13:11:00,
2013-05-28 07:21:00,52.0,18.0,-100.00,ESE,120,6.0,9.0,26,0.00,,,-99.99,,2013-05-28 13:21:00,
2013-05-28 07:32:00,53.0,19.0,-100.00,ESE,110,4.0,7.0,26,0.00,,,-99.99,,2013-05-28 13:32:00,
2013-05-28 07:42:00,53.0,22.0,-100.00,East,93,2.0,4.0,29,0.00,,,-99.99,,2013-05-28 13:42:00,
2013-05-28 07:52:00,56.0,22.0,-100.00,South,175,2.0,4.0,27,0.00,,,-99.99,,2013-05-28 13:52:00,
2013-05-28 08:02:00,56.0,17.0,-100.00,SW,229,1.0,4.0,21,0.00,,,-99.99,,2013-05-28 14:02:00,
2013-05-28 08:11:00,56.0,19.0,-100.00,SSE,157,2.0,6.0,24,0.00,,,-99.99,,2013-05-28 14:11:00,
2013-05-28 08:21:00,56.0,17.0,-100.00,ESE,110,5.0,9.0,21,0.00,,,-99.99,,2013-05-28 14:21:00,
2013-05-28 08:32:00,55.0,16.0,-100.00,East,99,6.0,9.0,21,0.00,,,-99.99,,2013-05-28 14:32:00,
2013-05-28 08:42:00,54.0,17.0,-100.00,East,83,6.0,10.0,23,0.00,,,-99.99,,2013-05-28 14:42:00,
2013-05-28 08:52:00,55.0,18.0,-100.00,ESE,102,8.0,12.0,23,0.00,,,-99.99,,2013-05-28 14:52:00,
2013-05-28 09:01:00,55.0,20.0,-100.00,ESE,114,10.0,14.0,25,0.00,,,-99.99,,2013-05-28 15:01:00,
2013-05-28 09:11:00,55.0,19.0,-100.00,SE,127,10.0,14.0,25,0.00,,,-99.99,,2013-05-28 15:11:00,
2013-05-28 09:21:00,55.0,21.0,-100.00,ESE,121,10.0,15.0,26,0.00,,,-99.99,,2013-05-28 15:21:00,
2013-05-28 09:32:00,56.0,22.0,-100.00,ESE,107,10.0,15.0,27,0.00,,,-99.99,,2013-05-28 15:32:00,
2013-05-28 09:43:00,56.0,20.0,-100.00,East,97,11.0,16.0,25,0.00,,,-99.99,,2013-05-28 15:43:00,
2013-05-28 09:52:00,56.0,21.0,-100.00,ESE,104,9.0,14.0,26,0.00,,,-99.99,,2013-05-28 15:52:00,
2013-05-28 10:03:00,57.0,22.0,-100.00,ESE,119,9.0,14.0,25,0.00,,,-99.99,,2013-05-28 16:03:00,
2013-05-28 10:12:00,56.0,20.0,-100.00,ESE,116,9.0,15.0,24,0.00,,,-99.99,,2013-05-28 16:12:00,
2013-05-28 10:22:00,57.0,18.0,-100.00,ESE,113,9.0,15.0,21,0.00,,,-99.99,,2013-05-28 16:22:00,
2013-05-28 10:33:00,57.0,19.0,-100.00,ESE,103,7.0,14.0,22,0.00,,,-99.99,,2013-05-28 16:33:00,
2013-05-28 10:42:00,57.0,20.0,-100.00,ESE,110,9.0,14.0,24,0.00,,,-99.99,,2013-05-28 16:42:00,
2013-05-28 10:52:00,57.0,21.0,-100.00,East,92,7.0,12.0,24,0.00,,,-99.99,,2013-05-28 16:52:00,
2013-05-28 11:02:00,56.0,23.0,-100.00,ESE,102,9.0,12.0,27,0.00,,,-99.99,,2013-05-28 17:02:00,
2013-05-28 11:12:00,57.0,23.0,-100.00,ESE,120,7.0,11.0,26,0.00,,,-99.99,,2013-05-28 17:12:00,
2013-05-28 11:22:00,58.0,24.0,-100.00,ESE,117,6.0,10.0,27,0.00,,,-99.99,,2013-05-28 17:22:00,
2013-05-28 11:32:00,57.0,23.0,-100.00,East,90,7.0,12.0,26,0.00,,,-99.99,,2013-05-28 17:32:00,
2013-05-28 11:42:00,57.0,25.0,-100.00,ESE,110,4.0,7.0,29,0.00,,,-99.99,,2013-05-28 17:42:00,
2013-05-28 11:51:00,57.0,24.0,-100.00,SE,133,9.0,25.0,28,0.00,,,-99.99,,2013-05-28 17:51:00,
2013-05-28 12:01:00,58.0,25.0,-100.00,SE,128,6.0,13.0,29,0.00,,,-99.99,,2013-05-28 18:01:00,
2013-05-28 12:11:00,59.0,26.0,-100.00,SSE,152,4.0,12.0,29,0.00,,,-99.99,,2013-05-28 18:11:00,
2013-05-28 12:21:00,59.0,27.0,-100.00,SE,143,6.0,9.0,29,0.00,,,-99.99,,2013-05-28 18:21:00,
2013-05-28 12:32:00,59.0,25.0,-100.00,ESE,116,6.0,13.0,27,0.00,,,-99.99,,2013-05-28 18:32:00,
2013-05-28 12:42:00,59.0,25.0,-100.00,ESE,107,8.0,12.0,27,0.00,,,-99.99,,2013-05-28 18:42:00,
2013-05-28 12:52:00,61.0,27.0,-100.00,ESE,106,7.0,11.0,28,0.00,,,-99.99,,2013-05-28 18:52:00,
2013-05-28 13:01:00,60.0,28.0,-100.00,East,90,6.0,11.0,28,0.00,,,-99.99,,2013-05-28 19:01:00,
2013-05-28 13:11:00,60.0,25.0,-100.00,SE,140,9.0,14.0,26,0.00,,,-99.99,,2013-05-28 19:11:00,
2013-05-28 13:21:00,61.0,27.0,-100.00,SSE,154,19.0,32.0,27,0.00,,,-99.99,,2013-05-28 19:21:00,
2013-05-28 13:32:00,61.0,27.0,-100.00,SE,141,17.0,26.0,28,0.00,,,-99.99,,2013-05-28 19:32:00,
2013-05-28 13:41:00,63.0,26.0,-100.00,SE,144,12.0,20.0,25,0.00,,,-99.99,,2013-05-28 19:41:00,
2013-05-28 13:52:00,63.0,24.0,-100.00,SSE,154,14.0,24.0,23,0.00,,,-99.99,,2013-05-28 19:52:00,
2013-05-28 14:01:00,63.0,26.0,-100.00,SE,144,20.0,32.0,24,0.00,,,-99.99,,2013-05-28 20:01:00,
2013-05-28 14:11:00,64.0,27.0,-100.00,SE,130,15.0,25.0,25,0.00,,,-99.99,,2013-05-28 20:11:00,
2013-05-28 14:22:00,64.0,27.0,-100.00,ESE,119,9.0,18.0,24,0.00,,,-99.99,,2013-05-28 20:22:00,
2013-05-28 14:32:00,64.0,26.0,-100.00,SSE,151,7.0,17.0,24,0.00,,,-99.99,,2013-05-28 20:32:00,
2013-05-28 14:42:00,64.0,24.0,-100.00,SE,140,14.0,30.0,21,0.00,,,-99.99,,2013-05-28 20:42:00,
2013-05-28 14:52:00,65.0,23.0,-100.00,South,186,14.0,29.0,20,0.00,,,-99.99,,2013-05-28 20:52:00,
2013-05-28 15:01:00,65.0,24.0,-100.00,South,189,11.0,24.0,21,0.00,,,-99.99,,2013-05-28 21:01:00,
2013-05-28 15:11:00,65.0,23.0,-100.00,South,179,14.0,27.0,20,0.00,,,-99.99,,2013-05-28 21:11:00,
2013-05-28 15:21:00,65.0,24.0,-100.00,SSE,160,17.0,26.0,21,0.00,,,-99.99,,2013-05-28 21:21:00,
2013-05-28 15:33:00,65.0,23.0,-100.00,South,175,16.0,26.0,19,0.00,,,-99.99,,2013-05-28 21:33:00,
2013-05-28 15:43:00,66.0,24.0,-100.00,South,171,18.0,27.0,20,0.00,,,-99.99,,2013-05-28 21:43:00,
2013-05-28 15:53:00,65.0,24.0,-100.00,SSE,165,17.0,29.0,21,0.00,,,-99.99,,2013-05-28 21:53:00,
2013-05-28 16:02:00,65.0,24.0,-100.00,SSE,167,17.0,27.0,21,0.00,,,-99.99,,2013-05-28 22:02:00,
2013-05-28 16:12:00,65.0,24.0,-100.00,South,179,14.0,27.0,21,0.00,,,-99.99,,2013-05-28 22:12:00,
2013-05-28 16:22:00,65.0,25.0,-100.00,South,176,12.0,20.0,22,0.00,,,-99.99,,2013-05-28 22:22:00,
2013-05-28 16:32:00,62.0,25.0,-100.00,South,179,16.0,27.0,24,0.00,,,-99.99,,2013-05-28 22:32:00,
2013-05-28 16:42:00,56.0,29.0,-100.00,South,179,22.0,43.0,35,0.00,,,-99.99,,2013-05-28 22:42:00,
2013-05-28 16:52:00,59.0,28.0,-100.00,SSW,192,10.0,29.0,31,0.00,,,-99.99,,2013-05-28 22:52:00,
2013-05-28 17:02:00,62.0,28.0,-100.00,South,185,7.0,12.0,28,0.00,,,-99.99,,2013-05-28 23:02:00,
2013-05-28 17:11:00,63.0,26.0,-100.00,South,176,7.0,14.0,25,0.00,,,-99.99,,2013-05-28 23:11:00,
2013-05-28 17:21:00,63.0,24.0,-100.00,SSE,157,10.0,18.0,22,0.00,,,-99.99,,2013-05-28 23:21:00,
2013-05-28 17:32:00,65.0,27.0,-100.00,South,181,10.0,22.0,24,0.00,,,-99.99,,2013-05-28 23:32:00,
2013-05-28 17:42:00,64.0,25.0,-100.00,South,174,13.0,21.0,22,0.00,,,-99.99,,2013-05-28 23:42:00,
2013-05-28 17:52:00,63.0,25.0,-100.00,South,175,11.0,24.0,23,0.00,,,-99.99,,2013-05-28 23:52:00,
2013-05-28 18:02:00,63.0,24.0,-100.00,South,169,14.0,22.0,22,0.00,,,-99.99,,2013-05-29 00:02:00,
2013-05-28 18:11:00,63.0,25.0,-100.00,South,171,12.0,20.0,23,0.00,,,-99.99,,2013-05-29 00:11:00,
2013-05-28 18:21:00,64.0,23.0,-100.00,South,176,9.0,19.0,20,0.00,,,-99.99,,2013-05-29 00:21:00,
2013-05-28 18:32:00,63.0,24.0,-100.00,South,182,10.0,21.0,22,0.00,,,-99.99,,2013-05-29 00:32:00,
2013-05-28 18:41:00,64.0,24.0,-100.00,South,185,9.0,21.0,22,0.00,,,-99.99,,2013-05-29 00:41:00,
2013-05-28 18:52:00,63.0,24.0,-100.00,SSW,193,10.0,17.0,23,0.00,,,-99.99,,2013-05-29 00:52:00,
2013-05-28 19:01:00,63.0,25.0,-100.00,SSW,199,11.0,19.0,24,0.00,,,-99.99,,2013-05-29 01:01:00,
2013-05-28 19:11:00,63.0,25.0,-100.00,WSW,243,11.0,17.0,23,0.00,,,-99.99,,2013-05-29 01:11:00,
2013-05-28 19:22:00,62.0,27.0,-100.00,WSW,239,13.0,21.0,27,0.00,,,-99.99,,2013-05-29 01:22:00,
2013-05-28 19:32:00,59.0,28.0,-100.00,SW,236,17.0,27.0,31,0.00,,,-99.99,,2013-05-29 01:32:00,
2013-05-28 19:41:00,58.0,30.0,-100.00,WSW,253,12.0,22.0,34,0.00,,,-99.99,,2013-05-29 01:41:00,
2013-05-28 19:52:00,57.0,30.0,-100.00,WSW,253,12.0,20.0,35,0.00,,,-99.99,,2013-05-29 01:52:00,
2013-05-28 20:02:00,56.0,31.0,-100.00,West,270,15.0,19.0,37,0.00,,,-99.99,,2013-05-29 02:02:00,
2013-05-28 20:12:00,56.0,31.0,-100.00,West,275,16.0,21.0,38,0.00,,,-99.99,,2013-05-29 02:12:00,
2013-05-28 20:21:00,55.0,31.0,-100.00,West,270,15.0,19.0,40,0.00,,,-99.99,,2013-05-29 02:21:00,
2013-05-28 20:32:00,54.0,32.0,-100.00,West,267,15.0,18.0,42,0.00,,,-99.99,,2013-05-29 02:32:00,
2013-05-28 20:42:00,54.0,32.0,-100.00,West,263,13.0,16.0,42,0.00,,,-99.99,,2013-05-29 02:42:00,
2013-05-28 20:51:00,54.0,32.0,-100.00,West,263,11.0,14.0,43,0.00,,,-99.99,,2013-05-29 02:51:00,
2013-05-28 21:02:00,53.0,32.0,-100.00,West,265,7.0,11.0,44,0.00,,,-99.99,,2013-05-29 03:02:00,
2013-05-28 21:12:00,53.0,32.0,-100.00,West,280,4.0,6.0,45,0.00,,,-99.99,,2013-05-29 03:12:00,
2013-05-28 21:21:00,53.0,32.0,-100.00,West,275,3.0,6.0,44,0.00,,,-99.99,,2013-05-29 03:21:00,
2013-05-28 21:33:00,52.0,33.0,-100.00,WSW,240,2.0,4.0,47,0.00,,,-99.99,,2013-05-29 03:33:00,
2013-05-28 21:43:00,52.0,32.0,-100.00,SSW,193,2.0,4.0,46,0.00,,,-99.99,,2013-05-29 03:43:00,
2013-05-28 21:53:00,53.0,31.0,-100.00,SW,232,4.0,7.0,44,0.00,,,-99.99,,2013-05-29 03:53:00,
2013-05-28 22:02:00,53.0,31.0,-100.00,SW,224,3.0,6.0,44,0.00,,,-99.99,,2013-05-29 04:02:00,
2013-05-28 22:12:00,52.0,33.0,-100.00,West,278,3.0,6.0,48,0.00,,,-99.99,,2013-05-29 04:12:00,
2013-05-28 22:23:00,50.0,35.0,-100.00,West,261,16.0,31.0,55,0.00,,,-99.99,,2013-05-29 04:23:00,
2013-05-28 22:33:00,49.0,35.0,-100.00,WSW,247,10.0,22.0,59,0.00,,,-99.99,,2013-05-29 04:33:00,
2013-05-28 22:42:00,49.0,35.0,-100.00,WSW,251,9.0,18.0,60,0.00,,,-99.99,,2013-05-29 04:42:00,
2013-05-28 22:52:00,48.0,35.0,-100.00,West,265,12.0,17.0,60,0.00,,,-99.99,,2013-05-29 04:52:00,
2013-05-28 23:02:00,48.0,36.0,-100.00,WNW,282,12.0,17.0,63,0.00,,,-99.99,,2013-05-29 05:02:00,
2013-05-28 23:12:00,47.0,36.0,-100.00,West,272,15.0,21.0,63,0.00,,,-99.99,,2013-05-29 05:12:00,
2013-05-28 23:22:00,47.0,36.0,-100.00,West,263,13.0,19.0,64,0.00,,,-99.99,,2013-05-29 05:22:00,
2013-05-28 23:32:00,47.0,36.0,-100.00,West,278,12.0,17.0,65,0.00,,,-99.99,,2013-05-29 05:32:00,
2013-05-28 23:42:00,48.0,35.0,-100.00,West,260,11.0,16.0,62,0.00,,,-99.99,,2013-05-29 05:42:00,
2013-05-28 23:52:00,47.0,35.0,-100.00,WSW,257,10.0,14.0,62,0.00,,,-99.99,,2013-05-29 05:52:00,